CYGFM02 (41886 NORAD) Tracking and Keplerian Element Data

This shows tracking and keplerian element data for the satellite.

Feedback or suggestion? Click here.




ElementValue
Catalog41886
NameCYGFM02
Epoch Orbit15284
Epoch Day262.16336137
Epoch Year2019
RAAN307.33
Inclination34.9592
Eccentricity0.001451
Argument of Perigee140.3305
Mean Anonmoly219.847
Mean Motion15.14953421
Decay Rate2.39E-06
L11 41886U 16078C 19262.16336137 .00000239 00000-0 14277-4 0 9998
L22 41886 34.9592 307.3300 0014510 140.3305 219.8470 15.14953421152840

Live tracking and technical data element details for CYGFM02 (NORAD 41886). CYGFM02 can be tracked NOW for your location showing map with azimuth and elevation plus other details from your city location.

Track the satellite on the map from your city or location and see movement details for azimuth, elevation, latitude, longitude, range, height, and movement on the map or in text.







IsCatalogInMostPopularTable: catalog: 41886, numindb: 344
Update: records affected: 1



GetName: 41886 CYGFM02

Hit Count: updated at: Thu, 19 Sep 2019 16:51:59 GMT